Weather History for Marion, SC

Change the Weather History Date:

Friday, October 12, 2012

  Actual Average (KFLO) Record (KFLO)
Temperature  
Mean Temperature 60 °F 65 °F  
Max Temperature 75 °F 77 °F 89 °F (1954)
Min Temperature 46 °F 54 °F 38 °F (1964)
Degree Days  
Heating Degree Days 4 3  
Month to date heating degree days 22  
Since 1 July heating degree days 31  
Cooling Degree Days 0 3  
Month to date cooling degree days 49  
Year to date cooling degree days 2005  
Growing Degree Days 10 (Base 50)    
Moisture  
Dew Point 51 °F    
Average Humidity 81    
Maximum Humidity 100    
Minimum Humidity 44    
Precipitation  
Precipitation 0.00 in 0.10 in 1.54 in (1977)
Month to date precipitation 1.34  
Year to date precipitation 35.49  
Sea Level Pressure  
Sea Level Pressure 30.22 in    
Wind  
Wind Speed 1 mph (NNW)    
Max Wind Speed 7 mph    
Max Gust Speed -    
Visibility 10 miles    
Events      
T = Trace of Precipitation, MM = Missing Value Source: NWS Daily Summary

Daily Weather History Graph

Daily Weather History Graph

Search for Another Location

Airport:

Trip Planner

Search our weather history database for the weather conditions in past years. The results will help you decide how hot, cold, wet, or windy it might be!

Date:

Astronomy

Oct. 12, 2012 Rise Set
Actual Time 7:20 AM EDT 6:46 PM EDT
Civil Twilight 6:55 AM EDT 7:11 PM EDT
Nautical Twilight 6:26 AM EDT 7:40 PM EDT
Astronomical Twilight 5:57 AM EDT 8:09 PM EDT
Moon 4:09 AM EDT (10/12) 4:49 PM EDT (10/12)
Length of Visible Light 12h 16m
Length of Day
11h 25m
Waning Crescent, 11% of the Moon is Illuminated
Oct 12
Waning Crescent
Oct 15
New
Oct 21
First Quarter
Oct 29
Full
Nov 6
Last Quarter

Hourly Weather History & Observations

Time (EDT) Temp. Dew Point Humidity Pressure Visibility Wind Dir Wind Speed Gust Speed Precip Events Conditions
12:15 AM 50.0 °F 50.0 °F 100% 30.24 in 10.0 mi Calm Calm - N/A   Clear
12:35 AM 50.0 °F 50.0 °F 100% 30.24 in 10.0 mi Calm Calm - N/A   Clear
12:55 AM 48.2 °F 48.2 °F 100% 30.23 in 10.0 mi Calm Calm - N/A   Clear
1:15 AM 48.2 °F 48.2 °F 100% 30.23 in 10.0 mi Calm Calm - N/A   Clear
1:35 AM 48.2 °F 48.2 °F 100% 30.23 in 10.0 mi Calm Calm - N/A   Clear
1:55 AM 48.2 °F 48.2 °F 100% 30.23 in 10.0 mi Calm Calm - N/A   Clear
2:15 AM 48.2 °F 48.2 °F 100% 30.22 in 10.0 mi Calm Calm - N/A   Clear
2:35 AM 46.4 °F 46.4 °F 100% 30.21 in 10.0 mi Calm Calm - N/A   Clear
2:55 AM 48.2 °F 48.2 °F 100% 30.21 in 10.0 mi Calm Calm - N/A   Clear
3:15 AM 46.4 °F 46.4 °F 100% 30.20 in 10.0 mi Calm Calm - N/A   Clear
3:35 AM 46.4 °F 46.4 °F 100% 30.20 in 10.0 mi Calm Calm - N/A   Clear
3:55 AM 46.4 °F 46.4 °F 100% 30.20 in 10.0 mi Calm Calm - N/A   Clear
4:15 AM 46.4 °F 46.4 °F 100% 30.20 in 10.0 mi Calm Calm - N/A   Clear
4:35 AM 46.4 °F 46.4 °F 100% 30.20 in 10.0 mi Calm Calm - N/A   Clear
4:55 AM 46.4 °F 46.4 °F 100% 30.20 in 7.0 mi Calm Calm - N/A   Clear
5:15 AM 46.4 °F 46.4 °F 100% 30.20 in 10.0 mi Calm Calm - N/A   Clear
5:35 AM 46.4 °F 46.4 °F 100% 30.20 in 10.0 mi Calm Calm - N/A   Clear
5:55 AM 46.4 °F 46.4 °F 100% 30.20 in 10.0 mi Calm Calm - N/A   Clear
6:15 AM 46.4 °F 46.4 °F 100% 30.20 in 10.0 mi Calm Calm - N/A   Clear
6:55 AM 46.4 °F 46.4 °F 100% 30.21 in 10.0 mi Calm Calm - N/A   Clear
7:15 AM 46.4 °F 46.4 °F 100% 30.21 in 10.0 mi Calm Calm - N/A   Clear
7:35 AM 46.4 °F 46.4 °F 100% 30.22 in 10.0 mi Calm Calm - N/A   Clear
7:55 AM 46.4 °F 46.4 °F 100% 30.22 in 10.0 mi Calm Calm - N/A   Clear
8:15 AM 50.0 °F 50.0 °F 100% 30.22 in 10.0 mi Calm Calm - N/A   Clear
8:35 AM 51.8 °F 50.0 °F 94% 30.23 in 10.0 mi Calm Calm - N/A   Clear
8:55 AM 53.6 °F 51.8 °F 94% 30.24 in 10.0 mi Calm Calm - N/A   Clear
9:15 AM 57.2 °F 53.6 °F 88% 30.24 in 10.0 mi Calm Calm - N/A   Clear
9:35 AM 60.8 °F 53.6 °F 77% 30.25 in 10.0 mi Calm Calm - N/A   Clear
10:15 AM 64.4 °F 55.4 °F 73% 30.26 in 10.0 mi Calm Calm - N/A   Clear
10:35 AM 64.4 °F 55.4 °F 73% 30.26 in 10.0 mi West 3.5 mph - N/A   Clear
10:55 AM 68.0 °F 53.6 °F 60% 30.25 in 10.0 mi WSW 4.6 mph - N/A   Clear
11:15 AM 68.0 °F 55.4 °F 64% 30.25 in 10.0 mi West 3.5 mph - N/A   Clear
11:35 AM 69.8 °F 53.6 °F 56% 30.24 in 10.0 mi WNW 3.5 mph - N/A   Clear
12:15 PM 71.6 °F 53.6 °F 53% 30.23 in 10.0 mi West 3.5 mph - N/A   Clear
12:35 PM 71.6 °F 53.6 °F 53% 30.22 in 10.0 mi NNW 4.6 mph - N/A   Clear
12:55 PM 71.6 °F 53.6 °F 53% 30.21 in 10.0 mi WNW 4.6 mph - N/A   Clear
1:15 PM 73.4 °F 53.6 °F 50% 30.19 in 10.0 mi NNW 4.6 mph - N/A   Clear
1:35 PM 73.4 °F 53.6 °F 50% 30.19 in 10.0 mi NNW 4.6 mph - N/A   Clear
1:55 PM 73.4 °F 51.8 °F 47% 30.18 in 10.0 mi Calm Calm - N/A   Clear
2:35 PM 73.4 °F 53.6 °F 50% 30.17 in 10.0 mi North 6.9 mph - N/A   Clear
2:55 PM 73.4 °F 53.6 °F 50% 30.17 in 10.0 mi North 3.5 mph - N/A   Clear
3:15 PM 73.4 °F 51.8 °F 47% 30.17 in 10.0 mi Calm Calm - N/A   Clear
3:35 PM 73.4 °F 51.8 °F 47% 30.16 in 10.0 mi NE 3.5 mph - N/A   Clear
3:55 PM 75.2 °F 51.8 °F 44% 30.16 in 10.0 mi Calm Calm - N/A   Clear
4:15 PM 73.4 °F 51.8 °F 47% 30.17 in 10.0 mi Calm Calm - N/A   Clear
4:35 PM 73.4 °F 51.8 °F 47% 30.17 in 10.0 mi North 3.5 mph - N/A   Clear
4:55 PM 75.2 °F 51.8 °F 44% 30.17 in 10.0 mi Calm Calm - N/A   Clear
5:15 PM 73.4 °F 51.8 °F 47% 30.18 in 10.0 mi NW 4.6 mph - N/A   Clear
5:35 PM 73.4 °F 51.8 °F 47% 30.18 in 10.0 mi NW 4.6 mph - N/A   Clear
6:15 PM 69.8 °F 55.4 °F 60% 30.20 in 10.0 mi Calm Calm - N/A   Clear
6:55 PM 64.4 °F 55.4 °F 73% 30.21 in 10.0 mi North 3.5 mph - N/A   Clear
7:15 PM 64.4 °F 55.4 °F 73% 30.21 in 10.0 mi Calm Calm - N/A   Clear
7:35 PM 60.8 °F 59.0 °F 94% 30.22 in 10.0 mi Calm Calm - N/A   Clear
7:55 PM 60.8 °F 57.2 °F 88% 30.22 in 10.0 mi Calm Calm - N/A   Clear
8:15 PM 60.8 °F 59.0 °F 94% 30.23 in 10.0 mi Calm Calm - N/A   Clear
8:35 PM 59.0 °F 57.2 °F 94% 30.23 in 10.0 mi Calm Calm - N/A   Clear
8:55 PM 59.0 °F 57.2 °F 94% 30.24 in 10.0 mi Calm Calm - N/A   Clear
9:15 PM 59.0 °F 55.4 °F 88% 30.25 in 10.0 mi Calm Calm - N/A   Clear
9:35 PM 57.2 °F 55.4 °F 94% 30.26 in 10.0 mi Calm Calm - N/A   Clear
10:15 PM 55.4 °F 55.4 °F 100% 30.27 in 10.0 mi Calm Calm - N/A   Clear
10:35 PM 55.4 °F 55.4 °F 100% 30.28 in 10.0 mi Calm Calm - N/A   Clear
10:55 PM 55.4 °F 53.6 °F 94% 30.28 in 10.0 mi NE 3.5 mph - N/A   Clear
11:15 PM 55.4 °F 53.6 °F 94% 30.28 in 10.0 mi NE 4.6 mph - N/A   Clear
11:35 PM 57.2 °F 51.8 °F 82% 30.29 in 10.0 mi NE 6.9 mph - N/A   Clear
11:55 PM 59.0 °F 51.8 °F 77% 30.30 in 10.0 mi NE 5.8 mph - N/A   Clear